Date,TemperatureHighF,TemperatureAvgF,TemperatureLowF,DewpointHighF,DewpointAvgF,DewpointLowF,HumidityHigh,HumidityAvg,HumidityLow,PressureMaxIn,PressureMinIn,WindSpeedMaxMPH,WindSpeedAvgMPH,GustSpeedMaxMPH,PrecipitationSumIn
2013-5-1,53.6,45.0,31.8,21.6,11.4,-1.5,45,26,15,30.69,30.31,42,9,42,0.00
2013-5-2,58.5,44.8,28.8,43.0,22.6,9.7,65,42,23,30.73,30.55,7,2,7,0.00
2013-5-3,68.4,49.6,35.1,49.6,35.6,20.8,82,61,21,30.55,30.22,15,2,16,0.00
2013-5-4,57.4,47.8,34.7,40.1,28.1,21.7,75,47,30,30.25,29.91,34,6,34,0.00
2013-5-5,58.3,46.4,36.9,43.7,36.8,28.9,91,71,42,30.05,29.94,25,3,25,0.03
2013-5-6,45.7,38.9,32.7,41.4,36.6,31.6,97,92,75,30.27,30.04,20,2,20,0.11
2013-5-7,45.9,39.7,35.4,41.7,37.2,33.8,96,91,74,30.35,30.27,9,1,9,0.24
2013-5-8,52.2,44.2,38.5,44.1,40.1,37.4,97,86,66,30.41,30.33,9,2,9,0.35
2013-5-9,68.9,48.1,36.3,49.6,42.2,34.7,95,81,46,30.48,30.36,18,2,20,0.00
2013-5-10,63.7,51.9,38.5,50.4,42.8,36.1,91,72,42,30.51,30.41,7,1,20,0.00
2013-5-11,73.8,53.9,40.1,52.3,43.6,36.9,88,70,37,30.53,30.42,6,1,7,0.00
2013-5-12,74.5,56.3,41.0,48.9,40.5,35.2,80,58,29,30.50,30.35,7,1,8,0.00
2013-5-13,75.2,59.8,41.0,46.6,35.6,30.2,78,45,22,30.38,30.21,11,1,12,0.00
2013-5-14,69.1,54.0,41.2,48.9,39.3,32.4,80,60,33,30.24,30.15,11,1,11,0.00
2013-5-15,69.8,54.5,37.2,42.8,30.5,17.1,83,48,15,30.24,30.15,14,1,15,0.00
2013-5-16,54.9,47.2,41.9,40.3,36.0,28.0,88,66,51,30.18,30.08,15,1,15,0.00
2013-5-17,59.0,48.1,37.2,36.1,33.0,27.9,84,58,35,30.29,30.14,11,1,11,0.00
2013-5-18,63.1,45.8,29.1,39.2,29.0,16.2,74,53,34,30.42,30.28,9,1,10,0.00
2013-5-19,63.3,47.4,33.4,42.6,32.5,21.2,87,59,29,30.44,30.36,19,3,20,0.00
2013-5-20,59.7,50.0,34.3,41.7,31.4,22.3,68,49,34,30.43,30.26,24,2,25,0.00
2013-5-21,64.2,54.6,42.1,37.4,26.7,13.8,65,36,18,30.27,29.98,18,2,21,0.00
2013-5-22,55.8,47.5,33.4,24.8,19.3,10.8,53,34,17,30.06,29.91,11,1,14,0.00
2013-5-23,56.1,42.8,28.2,32.4,22.4,12.6,64,46,25,30.32,30.05,12,1,12,0.00
2013-5-24,64.8,45.8,28.2,38.5,27.2,17.6,73,51,20,30.30,30.19,12,2,14,0.00
2013-5-25,63.7,49.4,33.4,35.8,29.0,14.2,69,47,19,30.23,30.15,13,1,13,0.00
2013-5-26,61.9,50.1,36.1,36.1,30.8,26.2,71,50,30,30.29,30.21,13,1,15,0.00
2013-5-27,59.2,45.6,32.4,42.6,33.0,19.2,92,63,27,30.30,30.18,11,1,11,0.03
2013-5-28,54.9,48.6,42.6,44.1,40.4,36.0,94,74,53,30.20,30.11,15,2,15,0.10
2013-5-29,57.9,51.2,42.4,45.1,38.3,29.7,88,62,41,30.17,30.06,14,3,15,0.01
2013-5-30,67.5,49.4,32.2,45.3,35.9,23.9,84,62,31,30.33,30.16,13,2,14,0.00
2013-5-31,64.2,51.5,34.3,46.9,35.0,24.4,72,54,26,30.38,30.31,15,1,15,0.00